Time,TemperatureF,DewpointF,PressureIn,WindDirection,WindDirectionDegrees,WindSpeedMPH,WindSpeedGustMPH,Humidity,HourlyPrecipIn,Conditions,Clouds,dailyrainin,SoftwareType,DateUTC
2013-08-19 00:00:00,66.9,60.2,30.14,WNW,293,0.0,0.0,79,0.00,,---,0.00,VWS V14.01,2013-08-19 04:00:00,
2013-08-19 00:01:00,66.9,60.2,30.14,WNW,293,0.0,0.0,79,0.00,,---,0.00,VWS V14.01,2013-08-19 04:01:00,
2013-08-19 00:02:00,66.9,60.5,30.14,WNW,293,0.0,0.0,80,0.00,,---,0.00,VWS V14.01,2013-08-19 04:02:00,
2013-08-19 00:07:00,66.8,60.4,30.14,WNW,293,0.0,0.0,80,0.00,,---,0.00,VWS V14.01,2013-08-19 04:07:00,
2013-08-19 00:12:00,66.6,60.2,30.13,WNW,293,0.0,0.0,80,0.00,,---,0.00,VWS V14.01,2013-08-19 04:12:00,
2013-08-19 00:17:00,66.6,60.6,30.14,WNW,293,0.0,0.0,81,0.00,,---,0.00,VWS V14.01,2013-08-19 04:17:00,
2013-08-19 00:22:00,66.7,60.7,30.14,WNW,293,0.0,0.0,81,0.00,,---,0.00,VWS V14.01,2013-08-19 04:22:00,
2013-08-19 00:27:00,66.8,60.8,30.14,West,265,0.0,0.0,81,0.00,,---,0.00,VWS V14.01,2013-08-19 04:27:00,
2013-08-19 00:30:00,66.8,60.8,30.14,NW,315,0.0,0.0,81,0.00,,---,0.00,VWS V14.01,2013-08-19 04:30:00,
2013-08-19 00:32:00,66.8,60.8,30.14,West,266,0.0,0.0,81,0.00,,---,0.00,VWS V14.01,2013-08-19 04:32:00,
2013-08-19 00:37:00,66.9,60.9,30.14,West,265,0.0,0.0,81,0.00,,---,0.00,VWS V14.01,2013-08-19 04:37:00,
2013-08-19 00:42:00,66.6,60.6,30.14,West,265,0.0,0.0,81,0.00,,---,0.00,VWS V14.01,2013-08-19 04:42:00,
2013-08-19 00:47:00,66.5,60.5,30.14,West,266,0.0,0.0,81,0.00,,---,0.00,VWS V14.01,2013-08-19 04:47:00,
2013-08-19 00:52:00,66.6,60.6,30.14,West,267,0.0,0.0,81,0.00,,---,0.00,VWS V14.01,2013-08-19 04:52:00,
2013-08-19 00:57:00,66.6,60.6,30.14,West,267,0.0,0.0,81,0.00,,---,0.00,VWS V14.01,2013-08-19 04:57:00,
2013-08-19 01:00:00,66.4,60.4,30.14,NW,315,0.0,0.0,81,0.00,,---,0.00,VWS V14.01,2013-08-19 05:00:00,
2013-08-19 01:02:00,66.4,60.4,30.14,West,267,0.0,0.0,81,0.00,,---,0.00,VWS V14.01,2013-08-19 05:02:00,
2013-08-19 01:07:00,66.1,60.5,30.14,West,267,0.0,0.0,82,0.00,,---,0.00,VWS V14.01,2013-08-19 05:07:00,
2013-08-19 01:12:00,66.1,60.5,30.14,West,267,0.0,0.0,82,0.00,,---,0.00,VWS V14.01,2013-08-19 05:12:00,
2013-08-19 01:17:00,66.3,60.7,30.14,West,267,0.0,0.0,82,0.00,,---,0.00,VWS V14.01,2013-08-19 05:17:00,
2013-08-19 01:22:00,66.4,60.7,30.14,West,267,0.0,0.0,82,0.00,,---,0.00,VWS V14.01,2013-08-19 05:22:00,
2013-08-19 01:27:00,66.5,60.5,30.13,West,267,0.0,0.0,81,0.00,,---,0.00,VWS V14.01,2013-08-19 05:27:00,
2013-08-19 01:30:00,66.6,60.6,30.14,NW,315,0.0,0.0,81,0.00,,---,0.00,VWS V14.01,2013-08-19 05:30:00,
2013-08-19 01:32:00,66.6,60.2,30.14,West,266,0.0,0.0,80,0.00,,---,0.00,VWS V14.01,2013-08-19 05:32:00,
2013-08-19 01:37:00,66.4,60.0,30.13,West,267,0.0,0.0,80,0.00,,---,0.00,VWS V14.01,2013-08-19 05:37:00,
2013-08-19 01:42:00,66.1,59.8,30.13,West,267,0.0,0.0,80,0.00,,---,0.00,VWS V14.01,2013-08-19 05:42:00,
2013-08-19 01:47:00,66.1,60.1,30.14,West,267,0.0,0.0,81,0.00,,---,0.00,VWS V14.01,2013-08-19 05:47:00,
2013-08-19 01:52:00,66.2,60.2,30.13,West,266,0.0,0.0,81,0.00,,---,0.00,VWS V14.01,2013-08-19 05:52:00,
2013-08-19 01:57:00,65.9,60.6,30.13,West,266,0.0,0.0,83,0.00,,---,0.00,VWS V14.01,2013-08-19 05:57:00,
2013-08-19 02:00:00,65.9,60.6,30.13,NW,315,0.0,0.0,83,0.00,,---,0.00,VWS V14.01,2013-08-19 06:00:00,
2013-08-19 02:02:00,65.9,60.6,30.13,West,267,0.0,0.0,83,0.00,,---,0.00,VWS V14.01,2013-08-19 06:02:00,
2013-08-19 02:07:00,66.0,60.7,30.13,West,267,0.0,0.0,83,0.00,,---,0.00,VWS V14.01,2013-08-19 06:07:00,
2013-08-19 02:12:00,65.9,60.9,30.13,West,267,0.0,0.0,84,0.00,,---,0.00,VWS V14.01,2013-08-19 06:12:00,
2013-08-19 02:17:00,65.9,60.9,30.12,West,268,0.0,0.0,84,0.00,,---,0.00,VWS V14.01,2013-08-19 06:17:00,
2013-08-19 02:22:00,65.7,61.1,30.12,West,271,0.0,0.0,85,0.00,,---,0.00,VWS V14.01,2013-08-19 06:22:00,
2013-08-19 02:27:00,65.8,61.8,30.12,West,260,0.0,0.0,87,0.00,,---,0.00,VWS V14.01,2013-08-19 06:27:00,
2013-08-19 02:30:00,65.9,61.9,30.12,NW,315,0.0,0.0,87,0.00,,---,0.00,VWS V14.01,2013-08-19 06:30:00,
2013-08-19 02:32:00,65.8,61.8,30.12,West,268,0.0,0.0,87,0.00,,---,0.00,VWS V14.01,2013-08-19 06:32:00,
2013-08-19 02:37:00,65.8,61.8,30.12,WSW,256,0.0,0.0,87,0.00,,---,0.00,VWS V14.01,2013-08-19 06:37:00,
2013-08-19 02:42:00,65.9,61.9,30.12,SW,229,0.0,0.0,87,0.00,,---,0.00,VWS V14.01,2013-08-19 06:42:00,
2013-08-19 02:47:00,65.9,62.2,30.12,WSW,248,0.0,0.0,88,0.00,,---,0.00,VWS V14.01,2013-08-19 06:47:00,
2013-08-19 02:52:00,65.9,61.9,30.12,West,268,0.0,0.0,87,0.00,,---,0.00,VWS V14.01,2013-08-19 06:52:00,
2013-08-19 02:57:00,65.8,61.8,30.12,WSW,248,2.0,2.0,87,0.00,,---,0.00,VWS V14.01,2013-08-19 06:57:00,
2013-08-19 03:00:00,65.8,62.2,30.12,WSW,248,0.0,2.0,88,0.00,,---,0.00,VWS V14.01,2013-08-19 07:00:00,
2013-08-19 03:02:00,65.8,62.2,30.12,West,266,1.0,2.0,88,0.00,,---,0.00,VWS V14.01,2013-08-19 07:02:00,
2013-08-19 03:07:00,65.8,62.2,30.12,WSW,256,2.0,2.0,88,0.00,,---,0.00,VWS V14.01,2013-08-19 07:07:00,
2013-08-19 03:12:00,65.7,61.4,30.12,WSW,240,2.0,2.0,86,0.00,,---,0.00,VWS V14.01,2013-08-19 07:12:00,
2013-08-19 03:17:00,65.7,61.4,30.12,West,276,1.0,2.0,86,0.00,,---,0.00,VWS V14.01,2013-08-19 07:17:00,
2013-08-19 03:22:00,65.8,61.5,30.12,West,274,1.0,2.0,86,0.00,,---,0.00,VWS V14.01,2013-08-19 07:22:00,
2013-08-19 03:27:00,65.8,61.5,30.12,WSW,248,1.0,2.0,86,0.00,,---,0.00,VWS V14.01,2013-08-19 07:27:00,
2013-08-19 03:30:00,65.8,61.8,30.12,West,270,1.0,2.0,87,0.00,,---,0.00,VWS V14.01,2013-08-19 07:30:00,
2013-08-19 03:32:00,65.8,61.8,30.12,WSW,244,2.0,2.0,87,0.00,,---,0.00,VWS V14.01,2013-08-19 07:32:00,
2013-08-19 03:37:00,65.9,61.3,30.12,WSW,245,2.0,2.0,85,0.00,,---,0.00,VWS V14.01,2013-08-19 07:37:00,
2013-08-19 03:42:00,65.9,60.9,30.12,WSW,248,2.0,2.0,84,0.00,,---,0.00,VWS V14.01,2013-08-19 07:42:00,
2013-08-19 03:47:00,65.9,60.9,30.12,West,267,2.0,2.0,84,0.00,,---,0.00,VWS V14.01,2013-08-19 07:47:00,
2013-08-19 03:52:00,66.0,61.4,30.12,West,260,1.0,2.0,85,0.00,,---,0.00,VWS V14.01,2013-08-19 07:52:00,
2013-08-19 03:57:00,66.0,61.4,30.11,WSW,243,1.0,2.0,85,0.00,,---,0.00,VWS V14.01,2013-08-19 07:57:00,
2013-08-19 04:00:00,65.9,60.9,30.11,WSW,248,1.0,2.0,84,0.00,,---,0.00,VWS V14.01,2013-08-19 08:00:00,
2013-08-19 04:02:00,65.8,60.8,30.12,SW,233,2.0,2.0,84,0.00,,---,0.00,VWS V14.01,2013-08-19 08:02:00,
2013-08-19 04:07:00,65.8,60.8,30.12,WSW,240,2.0,2.0,84,0.00,,---,0.00,VWS V14.01,2013-08-19 08:07:00,
2013-08-19 04:12:00,65.9,60.6,30.12,SW,236,2.0,2.0,83,0.00,,---,0.00,VWS V14.01,2013-08-19 08:12:00,
2013-08-19 04:17:00,66.0,60.7,30.11,WSW,243,0.0,2.0,83,0.00,,---,0.00,VWS V14.01,2013-08-19 08:17:00,
2013-08-19 04:22:00,66.0,60.7,30.11,WSW,243,0.0,2.0,83,0.00,,---,0.00,VWS V14.01,2013-08-19 08:22:00,
2013-08-19 04:27:00,65.9,60.3,30.11,WSW,240,0.0,2.0,82,0.00,,---,0.00,VWS V14.01,2013-08-19 08:27:00,
2013-08-19 04:30:00,65.9,60.6,30.11,WSW,248,1.0,2.0,83,0.00,,---,0.00,VWS V14.01,2013-08-19 08:30:00,
2013-08-19 04:32:00,65.9,60.3,30.11,SW,234,1.0,1.0,82,0.00,,---,0.00,VWS V14.01,2013-08-19 08:32:00,
2013-08-19 04:37:00,65.9,59.9,30.11,SW,227,1.0,2.0,81,0.00,,---,0.00,VWS V14.01,2013-08-19 08:37:00,
2013-08-19 04:42:00,65.9,59.6,30.11,SW,229,0.0,2.0,80,0.00,,---,0.00,VWS V14.01,2013-08-19 08:42:00,
2013-08-19 04:47:00,66.0,60.0,30.11,SW,236,0.0,2.0,81,0.00,,---,0.00,VWS V14.01,2013-08-19 08:47:00,
2013-08-19 04:52:00,66.3,60.7,30.11,WSW,238,1.0,2.0,82,0.00,,---,0.00,VWS V14.01,2013-08-19 08:52:00,
2013-08-19 04:57:00,66.4,60.7,30.11,SW,226,2.0,3.0,82,0.00,,---,0.00,VWS V14.01,2013-08-19 08:57:00,
2013-08-19 05:00:00,66.4,60.7,30.11,SW,225,1.0,3.0,82,0.00,,---,0.00,VWS V14.01,2013-08-19 09:00:00,
2013-08-19 05:02:00,66.4,60.7,30.11,SW,230,1.0,4.0,82,0.00,,---,0.00,VWS V14.01,2013-08-19 09:02:00,
2013-08-19 05:07:00,66.4,61.1,30.12,WSW,240,2.0,4.0,83,0.00,,---,0.00,VWS V14.01,2013-08-19 09:07:00,
2013-08-19 05:12:00,66.5,61.2,30.12,SW,236,2.0,4.0,83,0.00,,---,0.00,VWS V14.01,2013-08-19 09:12:00,
2013-08-19 05:17:00,66.7,61.0,30.12,West,275,2.0,4.0,82,0.00,,---,0.00,VWS V14.01,2013-08-19 09:17:00,
2013-08-19 05:22:00,66.8,61.8,30.11,SW,236,3.0,4.0,84,0.00,,---,0.00,VWS V14.01,2013-08-19 09:22:00,
2013-08-19 05:27:00,66.8,62.2,30.12,SW,236,4.0,7.0,85,0.00,,---,0.00,VWS V14.01,2013-08-19 09:27:00,
2013-08-19 05:30:00,66.7,62.7,30.12,SW,225,3.0,8.0,87,0.00,,---,0.00,VWS V14.01,2013-08-19 09:30:00,
2013-08-19 05:33:00,66.7,62.7,30.12,SW,233,5.0,6.0,87,0.00,,---,0.00,VWS V14.01,2013-08-19 09:33:00,
2013-08-19 05:38:00,66.4,62.4,30.12,West,262,5.0,8.0,87,0.00,,---,0.00,VWS V14.01,2013-08-19 09:38:00,
2013-08-19 05:43:00,66.2,62.2,30.12,West,274,3.0,8.0,87,0.00,,---,0.00,VWS V14.01,2013-08-19 09:43:00,
2013-08-19 05:48:00,65.9,61.3,30.12,WSW,238,5.0,8.0,85,0.00,,---,0.00,VWS V14.01,2013-08-19 09:48:00,
2013-08-19 05:53:00,65.8,60.8,30.13,SW,227,3.0,8.0,84,0.00,,---,0.00,VWS V14.01,2013-08-19 09:53:00,
2013-08-19 05:58:00,65.8,60.5,30.13,WSW,250,3.0,8.0,83,0.00,,---,0.00,VWS V14.01,2013-08-19 09:58:00,
2013-08-19 06:00:00,65.9,60.6,30.13,WSW,248,4.0,8.0,83,0.00,,---,0.00,VWS V14.01,2013-08-19 10:00:00,
2013-08-19 06:03:00,65.8,60.5,30.13,NW,309,1.0,4.0,83,0.00,,---,0.00,VWS V14.01,2013-08-19 10:03:00,
2013-08-19 06:08:00,65.7,60.4,30.13,SW,236,2.0,5.0,83,0.00,,---,0.00,VWS V14.01,2013-08-19 10:08:00,
2013-08-19 06:13:00,65.6,60.0,30.13,SSW,212,3.0,6.0,82,0.00,,---,0.00,VWS V14.01,2013-08-19 10:13:00,
2013-08-19 06:18:00,65.5,59.2,30.13,WSW,241,4.0,6.0,80,0.00,,---,0.00,VWS V14.01,2013-08-19 10:18:00,
2013-08-19 06:23:00,65.6,58.9,30.13,West,260,4.0,7.0,79,0.00,,---,0.00,VWS V14.01,2013-08-19 10:23:00,
2013-08-19 06:28:00,65.8,59.5,30.13,West,272,3.0,7.0,80,0.00,,---,0.00,VWS V14.01,2013-08-19 10:28:00,
2013-08-19 06:30:00,65.8,59.1,30.13,West,270,4.0,8.0,79,0.00,,---,0.00,VWS V14.01,2013-08-19 10:30:00,
2013-08-19 06:33:00,65.8,59.1,30.13,SW,226,4.0,5.0,79,0.00,,---,0.00,VWS V14.01,2013-08-19 10:33:00,
2013-08-19 06:38:00,65.9,59.6,30.13,WSW,257,4.0,7.0,80,0.00,,---,0.00,VWS V14.01,2013-08-19 10:38:00,
2013-08-19 06:43:00,65.9,59.2,30.13,SW,234,6.0,8.0,79,0.00,,---,0.00,VWS V14.01,2013-08-19 10:43:00,
2013-08-19 06:48:00,66.0,59.0,30.12,West,270,3.0,8.0,78,0.00,,---,0.00,VWS V14.01,2013-08-19 10:48:00,
2013-08-19 06:53:00,66.1,59.0,30.12,West,266,2.0,8.0,78,0.00,,---,0.00,VWS V14.01,2013-08-19 10:53:00,
2013-08-19 06:58:00,66.2,59.2,30.12,West,266,4.0,8.0,78,0.00,,---,0.00,VWS V14.01,2013-08-19 10:58:00,
2013-08-19 07:00:00,66.3,59.6,30.13,WSW,248,4.0,8.0,79,0.00,,---,0.00,VWS V14.01,2013-08-19 11:00:00,
2013-08-19 07:03:00,66.3,59.6,30.13,WSW,238,3.0,5.0,79,0.00,,---,0.00,VWS V14.01,2013-08-19 11:03:00,
2013-08-19 07:08:00,66.4,60.0,30.12,West,270,3.0,5.0,80,0.00,,---,0.00,VWS V14.01,2013-08-19 11:08:00,
2013-08-19 07:13:00,66.6,60.9,30.12,West,276,3.0,5.0,82,0.00,,---,0.00,VWS V14.01,2013-08-19 11:13:00,
2013-08-19 07:18:00,66.9,61.6,30.12,WSW,240,3.0,5.0,83,0.00,,---,0.00,VWS V14.01,2013-08-19 11:18:00,
2013-08-19 07:23:00,67.1,62.1,30.12,WSW,254,3.0,5.0,84,0.00,,---,0.00,VWS V14.01,2013-08-19 11:23:00,
2013-08-19 07:28:00,67.3,62.6,30.12,West,268,4.0,5.0,85,0.00,,---,0.00,VWS V14.01,2013-08-19 11:28:00,
2013-08-19 07:30:00,67.4,62.7,30.12,West,270,3.0,6.0,85,0.00,,---,0.00,VWS V14.01,2013-08-19 11:30:00,
2013-08-19 07:33:00,67.5,62.8,30.12,West,274,4.0,4.0,85,0.00,,---,0.00,VWS V14.01,2013-08-19 11:33:00,
2013-08-19 07:38:00,67.6,62.9,30.12,WNW,297,3.0,6.0,85,0.00,,---,0.00,VWS V14.01,2013-08-19 11:38:00,
2013-08-19 07:43:00,67.7,63.0,30.12,WNW,297,4.0,6.0,85,0.00,,---,0.00,VWS V14.01,2013-08-19 11:43:00,
2013-08-19 07:48:00,67.8,63.1,30.12,West,278,3.0,6.0,85,0.00,,---,0.00,VWS V14.01,2013-08-19 11:48:00,
2013-08-19 07:53:00,67.8,63.1,30.12,WSW,243,4.0,7.0,85,0.00,,---,0.00,VWS V14.01,2013-08-19 11:53:00,
2013-08-19 07:58:00,67.5,62.8,30.12,West,271,6.0,8.0,85,0.00,,---,0.00,VWS V14.01,2013-08-19 11:58:00,
2013-08-19 08:00:00,67.5,63.2,30.12,West,270,4.0,8.0,86,0.00,,---,0.00,VWS V14.01,2013-08-19 12:00:00,
2013-08-19 08:03:00,67.6,63.3,30.12,WSW,252,3.0,4.0,86,0.00,,---,0.00,VWS V14.01,2013-08-19 12:03:00,
2013-08-19 08:08:00,67.9,63.2,30.13,WSW,249,4.0,6.0,85,0.00,,---,0.00,VWS V14.01,2013-08-19 12:08:00,
2013-08-19 08:13:00,68.5,63.8,30.12,NW,306,0.0,6.0,85,0.00,,---,0.00,VWS V14.01,2013-08-19 12:13:00,
2013-08-19 08:18:00,69.2,63.8,30.12,WSW,254,6.0,6.0,83,0.00,,---,0.00,VWS V14.01,2013-08-19 12:18:00,
2013-08-19 08:23:00,69.2,63.8,30.13,WSW,238,4.0,7.0,83,0.00,,---,0.00,VWS V14.01,2013-08-19 12:23:00,
2013-08-19 08:28:00,70.1,64.0,30.12,WNW,297,5.0,7.0,81,0.00,,---,0.00,VWS V14.01,2013-08-19 12:28:00,
2013-08-19 08:30:00,70.4,63.9,30.12,West,270,3.0,7.0,80,0.00,,---,0.00,VWS V14.01,2013-08-19 12:30:00,
2013-08-19 08:33:00,70.5,64.0,30.13,SW,228,3.0,6.0,80,0.00,,---,0.00,VWS V14.01,2013-08-19 12:33:00,
2013-08-19 08:38:00,70.7,63.9,30.12,WNW,288,2.0,6.0,79,0.00,,---,0.00,VWS V14.01,2013-08-19 12:38:00,
2013-08-19 08:43:00,71.1,63.9,30.12,WSW,256,4.0,6.0,78,0.00,,---,0.00,VWS V14.01,2013-08-19 12:43:00,
2013-08-19 08:48:00,71.0,63.8,30.12,SW,235,5.0,7.0,78,0.00,,---,0.00,VWS V14.01,2013-08-19 12:48:00,
2013-08-19 08:53:00,71.0,63.4,30.13,WSW,252,3.0,8.0,77,0.00,,---,0.00,VWS V14.01,2013-08-19 12:53:00,
2013-08-19 08:58:00,70.9,63.3,30.13,SW,236,8.0,9.0,77,0.00,,---,0.00,VWS V14.01,2013-08-19 12:58:00,
2013-08-19 09:00:00,70.8,63.6,30.13,WSW,248,4.0,9.0,78,0.00,,---,0.00,VWS V14.01,2013-08-19 13:00:00,
2013-08-19 09:03:00,70.9,64.1,30.13,West,269,4.0,6.0,79,0.00,,---,0.00,VWS V14.01,2013-08-19 13:03:00,
2013-08-19 09:08:00,71.1,63.9,30.12,SW,230,5.0,7.0,78,0.00,,---,0.00,VWS V14.01,2013-08-19 13:08:00,
2013-08-19 09:13:00,71.5,63.5,30.12,West,262,7.0,7.0,76,0.00,,---,0.00,VWS V14.01,2013-08-19 13:13:00,
2013-08-19 09:18:00,71.3,63.3,30.12,West,276,2.0,9.0,76,0.00,,---,0.00,VWS V14.01,2013-08-19 13:18:00,
2013-08-19 09:23:00,71.4,63.8,30.12,West,266,3.0,9.0,77,0.00,,---,0.00,VWS V14.01,2013-08-19 13:23:00,
2013-08-19 09:28:00,71.1,63.5,30.12,NW,326,5.0,9.0,77,0.00,,---,0.00,VWS V14.01,2013-08-19 13:28:00,
2013-08-19 09:30:00,71.1,63.5,30.12,West,270,4.0,9.0,77,0.00,,---,0.00,VWS V14.01,2013-08-19 13:30:00,
2013-08-19 09:33:00,71.0,63.8,30.12,West,274,6.0,7.0,78,0.00,,---,0.00,VWS V14.01,2013-08-19 13:33:00,
2013-08-19 09:38:00,71.3,63.7,30.12,SW,225,1.0,7.0,77,0.00,,---,0.00,VWS V14.01,2013-08-19 13:38:00,
2013-08-19 09:43:00,71.7,63.0,30.12,WSW,253,4.0,8.0,74,0.00,,---,0.00,VWS V14.01,2013-08-19 13:43:00,
2013-08-19 09:48:00,72.1,63.0,30.12,WNW,283,3.0,9.0,73,0.00,,---,0.00,VWS V14.01,2013-08-19 13:48:00,
2013-08-19 09:53:00,72.7,63.9,30.12,SW,229,7.0,9.0,74,0.00,,---,0.00,VWS V14.01,2013-08-19 13:53:00,
2013-08-19 09:58:00,73.1,63.5,30.12,WNW,289,5.0,9.0,72,0.00,,---,0.00,VWS V14.01,2013-08-19 13:58:00,
2013-08-19 10:00:00,73.5,62.7,30.11,West,270,5.0,9.0,69,0.00,,---,0.00,VWS V14.01,2013-08-19 14:00:00,
2013-08-19 10:03:00,73.8,63.0,30.12,SW,228,1.0,8.0,69,0.00,,---,0.00,VWS V14.01,2013-08-19 14:03:00,
2013-08-19 10:08:00,74.0,61.9,30.11,WSW,257,7.0,8.0,66,0.00,,---,0.00,VWS V14.01,2013-08-19 14:08:00,
2013-08-19 10:13:00,73.8,62.6,30.11,SW,228,2.0,8.0,68,0.00,,---,0.00,VWS V14.01,2013-08-19 14:13:00,
2013-08-19 10:18:00,73.9,61.4,30.11,WSW,243,8.0,8.0,65,0.00,,---,0.00,VWS V14.01,2013-08-19 14:18:00,
2013-08-19 10:23:00,74.5,62.0,30.11,WNW,290,4.0,8.0,65,0.00,,---,0.00,VWS V14.01,2013-08-19 14:23:00,
2013-08-19 10:28:00,74.5,62.0,30.11,West,269,6.0,10.0,65,0.00,,---,0.00,VWS V14.01,2013-08-19 14:28:00,
2013-08-19 10:30:00,74.1,61.2,30.11,West,270,5.0,10.0,64,0.00,,---,0.00,VWS V14.01,2013-08-19 14:30:00,
2013-08-19 10:33:00,73.9,61.0,30.11,SW,221,4.0,11.0,64,0.00,,---,0.00,VWS V14.01,2013-08-19 14:33:00,
2013-08-19 10:38:00,74.1,61.2,30.11,WNW,282,6.0,11.0,64,0.00,,---,0.00,VWS V14.01,2013-08-19 14:38:00,
2013-08-19 10:43:00,74.8,60.9,30.11,WSW,242,8.0,11.0,62,0.00,,---,0.00,VWS V14.01,2013-08-19 14:43:00,
2013-08-19 10:48:00,75.3,61.8,30.11,WSW,249,4.0,11.0,63,0.00,,---,0.00,VWS V14.01,2013-08-19 14:48:00,
2013-08-19 10:53:00,75.6,62.1,30.11,WSW,248,1.0,11.0,63,0.00,,---,0.00,VWS V14.01,2013-08-19 14:53:00,
2013-08-19 10:58:00,75.5,61.6,30.11,West,279,8.0,11.0,62,0.00,,---,0.00,VWS V14.01,2013-08-19 14:58:00,
2013-08-19 11:00:00,75.1,61.7,30.11,West,270,6.0,11.0,63,0.00,,---,0.00,VWS V14.01,2013-08-19 15:00:00,
2013-08-19 11:03:00,74.9,61.9,30.11,WNW,284,6.0,8.0,64,0.00,,---,0.00,VWS V14.01,2013-08-19 15:03:00,
2013-08-19 11:08:00,74.8,61.8,30.11,WSW,258,5.0,11.0,64,0.00,,---,0.00,VWS V14.01,2013-08-19 15:08:00,
2013-08-19 11:13:00,74.8,61.8,30.11,WNW,285,6.0,11.0,64,0.00,,---,0.00,VWS V14.01,2013-08-19 15:13:00,
2013-08-19 11:18:00,74.8,62.3,30.11,SSW,198,5.0,13.0,65,0.00,,---,0.00,VWS V14.01,2013-08-19 15:18:00,
2013-08-19 11:23:00,74.7,62.2,30.11,WNW,303,9.0,13.0,65,0.00,,---,0.00,VWS V14.01,2013-08-19 15:23:00,
2013-08-19 11:28:00,74.9,62.3,30.11,WNW,289,9.0,13.0,65,0.00,,---,0.00,VWS V14.01,2013-08-19 15:28:00,
2013-08-19 11:30:00,74.8,62.7,30.11,West,270,7.0,13.0,66,0.00,,---,0.00,VWS V14.01,2013-08-19 15:30:00,
2013-08-19 11:34:00,74.9,62.8,30.11,West,265,7.0,12.0,66,0.00,,---,0.00,VWS V14.01,2013-08-19 15:34:00,
2013-08-19 11:39:00,74.8,63.1,30.11,WSW,242,11.0,13.0,67,0.00,,---,0.00,VWS V14.01,2013-08-19 15:39:00,
2013-08-19 11:44:00,74.9,62.3,30.11,WSW,255,10.0,14.0,65,0.00,,---,0.00,VWS V14.01,2013-08-19 15:44:00,
2013-08-19 11:49:00,75.1,63.0,30.11,WNW,293,10.0,14.0,66,0.00,,---,0.00,VWS V14.01,2013-08-19 15:49:00,
2013-08-19 11:54:00,75.0,62.9,30.10,West,274,8.0,14.0,66,0.00,,---,0.00,VWS V14.01,2013-08-19 15:54:00,
2013-08-19 11:59:00,74.9,62.3,30.10,WSW,250,11.0,14.0,65,0.00,,---,0.00,VWS V14.01,2013-08-19 15:59:00,
2013-08-19 12:00:00,74.9,62.3,30.10,West,270,8.0,14.0,65,0.00,,---,0.00,VWS V14.01,2013-08-19 16:00:00,
2013-08-19 12:04:00,75.0,62.9,30.10,WNW,294,4.0,12.0,66,0.00,,---,0.00,VWS V14.01,2013-08-19 16:04:00,
2013-08-19 12:09:00,74.8,62.3,30.10,WSW,244,11.0,14.0,65,0.00,,---,0.00,VWS V14.01,2013-08-19 16:09:00,
2013-08-19 12:14:00,74.8,62.7,30.09,WSW,253,11.0,14.0,66,0.00,,---,0.00,VWS V14.01,2013-08-19 16:14:00,
2013-08-19 12:19:00,75.1,63.0,30.09,West,266,6.0,14.0,66,0.00,,---,0.00,VWS V14.01,2013-08-19 16:19:00,
2013-08-19 12:24:00,75.2,63.1,30.09,WNW,285,9.0,14.0,66,0.00,,---,0.00,VWS V14.01,2013-08-19 16:24:00,
2013-08-19 12:29:00,75.4,63.3,30.09,NNW,333,9.0,14.0,66,0.00,,---,0.00,VWS V14.01,2013-08-19 16:29:00,
2013-08-19 12:30:00,75.4,62.8,30.09,West,270,8.0,14.0,65,0.00,,---,0.00,VWS V14.01,2013-08-19 16:30:00,
2013-08-19 12:34:00,75.3,62.7,30.09,WSW,250,8.0,9.0,65,0.00,,---,0.00,VWS V14.01,2013-08-19 16:34:00,
2013-08-19 12:39:00,75.5,62.9,30.09,WSW,239,8.0,11.0,65,0.00,,---,0.00,VWS V14.01,2013-08-19 16:39:00,
2013-08-19 12:44:00,75.7,63.5,30.09,WSW,237,8.0,11.0,66,0.00,,---,0.00,VWS V14.01,2013-08-19 16:44:00,
2013-08-19 12:49:00,75.5,63.4,30.09,SW,214,8.0,12.0,66,0.00,,---,0.00,VWS V14.01,2013-08-19 16:49:00,
2013-08-19 12:54:00,75.2,63.5,30.08,West,273,7.0,12.0,67,0.00,,---,0.00,VWS V14.01,2013-08-19 16:54:00,
2013-08-19 12:59:00,75.6,63.5,30.08,WSW,243,10.0,12.0,66,0.00,,---,0.00,VWS V14.01,2013-08-19 16:59:00,
2013-08-19 13:00:00,75.5,63.4,30.08,WSW,248,6.0,12.0,66,0.00,,---,0.00,VWS V14.01,2013-08-19 17:00:00,
2013-08-19 13:04:00,75.3,63.2,30.08,WSW,243,7.0,10.0,66,0.00,,---,0.00,VWS V14.01,2013-08-19 17:04:00,
2013-08-19 13:09:00,75.7,64.0,30.08,South,187,1.0,11.0,67,0.00,,---,0.00,VWS V14.01,2013-08-19 17:09:00,
2013-08-19 13:14:00,76.2,64.0,30.08,South,184,4.0,11.0,66,0.00,,---,0.00,VWS V14.01,2013-08-19 17:14:00,
2013-08-19 13:19:00,76.0,63.8,30.08,WSW,246,2.0,12.0,66,0.00,,---,0.00,VWS V14.01,2013-08-19 17:19:00,
2013-08-19 13:24:00,75.9,63.3,30.08,WSW,238,9.0,12.0,65,0.00,,---,0.00,VWS V14.01,2013-08-19 17:24:00,
2013-08-19 13:29:00,75.8,63.6,30.08,West,260,5.0,12.0,66,0.00,,---,0.00,VWS V14.01,2013-08-19 17:29:00,
2013-08-19 13:30:00,75.5,63.4,30.08,SW,225,5.0,12.0,66,0.00,,---,0.00,VWS V14.01,2013-08-19 17:30:00,
2013-08-19 13:34:00,75.3,63.6,30.08,SSW,205,4.0,11.0,67,0.00,,---,0.00,VWS V14.01,2013-08-19 17:34:00,
2013-08-19 13:39:00,75.6,63.9,30.08,WSW,255,7.0,11.0,67,0.00,,---,0.00,VWS V14.01,2013-08-19 17:39:00,
2013-08-19 13:44:00,75.3,63.6,30.08,SW,226,9.0,11.0,67,0.00,,---,0.00,VWS V14.01,2013-08-19 17:44:00,
2013-08-19 13:49:00,75.2,63.9,30.08,South,174,9.0,12.0,68,0.00,,---,0.00,VWS V14.01,2013-08-19 17:49:00,
2013-08-19 13:54:00,75.1,63.8,30.08,SSW,210,5.0,12.0,68,0.00,,---,0.00,VWS V14.01,2013-08-19 17:54:00,
2013-08-19 13:59:00,75.4,64.1,30.08,WSW,245,5.0,12.0,68,0.00,,---,0.00,VWS V14.01,2013-08-19 17:59:00,
2013-08-19 14:00:00,75.4,64.1,30.07,WSW,248,6.0,12.0,68,0.00,,---,0.00,VWS V14.01,2013-08-19 18:00:00,
2013-08-19 14:04:00,75.6,64.3,30.08,WSW,255,4.0,6.0,68,0.00,,---,0.00,VWS V14.01,2013-08-19 18:04:00,
2013-08-19 14:09:00,75.4,64.1,30.08,WNW,287,5.0,11.0,68,0.00,,---,0.00,VWS V14.01,2013-08-19 18:09:00,
2013-08-19 14:14:00,75.4,64.1,30.08,WSW,243,5.0,11.0,68,0.00,,---,0.00,VWS V14.01,2013-08-19 18:14:00,
2013-08-19 14:19:00,75.7,64.4,30.07,West,262,6.0,11.0,68,0.00,,---,0.00,VWS V14.01,2013-08-19 18:19:00,
2013-08-19 14:24:00,75.7,64.4,30.07,West,281,3.0,12.0,68,0.00,,---,0.00,VWS V14.01,2013-08-19 18:24:00,
2013-08-19 14:29:00,75.8,64.9,30.07,SW,229,6.0,12.0,69,0.00,,---,0.00,VWS V14.01,2013-08-19 18:29:00,
2013-08-19 14:30:00,76.0,65.1,30.07,WSW,248,6.0,12.0,69,0.00,,---,0.00,VWS V14.01,2013-08-19 18:30:00,
2013-08-19 14:34:00,75.9,64.6,30.07,WNW,293,7.0,11.0,68,0.00,,---,0.00,VWS V14.01,2013-08-19 18:34:00,
2013-08-19 14:39:00,75.7,64.8,30.07,SW,226,6.0,11.0,69,0.00,,---,0.00,VWS V14.01,2013-08-19 18:39:00,
2013-08-19 14:44:00,75.6,64.7,30.07,SW,222,12.0,12.0,69,0.00,,---,0.00,VWS V14.01,2013-08-19 18:44:00,
2013-08-19 14:49:00,75.6,64.7,30.07,West,271,6.0,12.0,69,0.00,,---,0.00,VWS V14.01,2013-08-19 18:49:00,
2013-08-19 14:54:00,75.5,64.2,30.07,WSW,248,7.0,15.0,68,0.00,,---,0.00,VWS V14.01,2013-08-19 18:54:00,
2013-08-19 14:59:00,75.7,64.0,30.07,West,262,6.0,15.0,67,0.00,,---,0.00,VWS V14.01,2013-08-19 18:59:00,
2013-08-19 15:00:00,75.8,64.1,30.07,WSW,248,7.0,15.0,67,0.00,,---,0.00,VWS V14.01,2013-08-19 19:00:00,
2013-08-19 15:04:00,75.7,64.0,30.07,WSW,238,10.0,13.0,67,0.00,,---,0.00,VWS V14.01,2013-08-19 19:04:00,
2013-08-19 15:09:00,75.6,64.7,30.07,SW,225,9.0,13.0,69,0.00,,---,0.00,VWS V14.01,2013-08-19 19:09:00,
2013-08-19 15:14:00,75.7,64.8,30.07,SW,233,9.0,13.0,69,0.00,,---,0.00,VWS V14.01,2013-08-19 19:14:00,
2013-08-19 15:19:00,75.5,64.6,30.07,West,270,6.0,15.0,69,0.00,,---,0.00,VWS V14.01,2013-08-19 19:19:00,
2013-08-19 15:24:00,75.8,64.5,30.07,WSW,255,10.0,16.0,68,0.00,,---,0.00,VWS V14.01,2013-08-19 19:24:00,
2013-08-19 15:29:00,76.0,64.3,30.07,SW,228,10.0,16.0,67,0.00,,---,0.00,VWS V14.01,2013-08-19 19:29:00,
2013-08-19 15:30:00,76.1,64.4,30.07,WSW,248,8.0,16.0,67,0.00,,---,0.00,VWS V14.01,2013-08-19 19:30:00,
2013-08-19 15:34:00,76.1,64.4,30.07,South,172,2.0,12.0,67,0.00,,---,0.00,VWS V14.01,2013-08-19 19:34:00,
2013-08-19 15:39:00,76.4,64.6,30.06,West,259,5.0,12.0,67,0.00,,---,0.00,VWS V14.01,2013-08-19 19:39:00,
2013-08-19 15:44:00,76.7,64.5,30.06,SW,215,5.0,12.0,66,0.00,,---,0.00,VWS V14.01,2013-08-19 19:44:00,
2013-08-19 15:49:00,77.1,64.4,30.06,WSW,249,5.0,12.0,65,0.00,,---,0.00,VWS V14.01,2013-08-19 19:49:00,
2013-08-19 15:54:00,77.0,64.3,30.07,WSW,240,7.0,15.0,65,0.00,,---,0.00,VWS V14.01,2013-08-19 19:54:00,
2013-08-19 15:59:00,76.2,63.6,30.07,West,260,16.0,18.0,65,0.00,,---,0.00,VWS V14.01,2013-08-19 19:59:00,
2013-08-19 16:00:00,75.9,63.7,30.07,WSW,248,7.0,18.0,66,0.00,,---,0.00,VWS V14.01,2013-08-19 20:00:00,
2013-08-19 16:04:00,75.9,64.6,30.07,SSW,207,5.0,15.0,68,0.00,,---,0.00,VWS V14.01,2013-08-19 20:04:00,
2013-08-19 16:09:00,76.0,64.3,30.07,SSW,212,8.0,15.0,67,0.00,,---,0.00,VWS V14.01,2013-08-19 20:09:00,
2013-08-19 16:14:00,75.8,64.5,30.07,SW,227,4.0,15.0,68,0.00,,---,0.00,VWS V14.01,2013-08-19 20:14:00,
2013-08-19 16:19:00,76.3,65.0,30.06,SSW,200,9.0,15.0,68,0.00,,---,0.00,VWS V14.01,2013-08-19 20:19:00,
2013-08-19 16:24:00,76.7,64.9,30.06,West,281,5.0,15.0,67,0.00,,---,0.00,VWS V14.01,2013-08-19 20:24:00,
2013-08-19 16:29:00,76.5,64.7,30.06,WSW,254,13.0,15.0,67,0.00,,---,0.00,VWS V14.01,2013-08-19 20:29:00,
2013-08-19 16:30:00,76.3,64.6,30.07,WSW,248,7.0,16.0,67,0.00,,---,0.00,VWS V14.01,2013-08-19 20:30:00,
2013-08-19 16:34:00,75.8,64.5,30.07,SW,231,10.0,16.0,68,0.00,,---,0.00,VWS V14.01,2013-08-19 20:34:00,
2013-08-19 16:39:00,75.5,64.6,30.07,SW,230,4.0,16.0,69,0.00,,---,0.00,VWS V14.01,2013-08-19 20:39:00,
2013-08-19 16:44:00,75.7,65.2,30.06,WSW,244,8.0,16.0,70,0.00,,---,0.00,VWS V14.01,2013-08-19 20:44:00,
2013-08-19 16:49:00,75.7,65.2,30.06,South,184,3.0,16.0,70,0.00,,---,0.00,VWS V14.01,2013-08-19 20:49:00,
2013-08-19 16:54:00,75.8,65.3,30.06,WSW,242,9.0,16.0,70,0.00,,---,0.00,VWS V14.01,2013-08-19 20:54:00,
2013-08-19 16:59:00,75.9,65.8,30.06,West,261,5.0,16.0,71,0.00,,---,0.00,VWS V14.01,2013-08-19 20:59:00,
2013-08-19 17:00:00,75.9,65.8,30.06,SW,225,6.0,16.0,71,0.00,,---,0.00,VWS V14.01,2013-08-19 21:00:00,
2013-08-19 17:04:00,76.1,66.0,30.06,SSE,159,3.0,11.0,71,0.00,,---,0.00,VWS V14.01,2013-08-19 21:04:00,
2013-08-19 17:09:00,76.3,66.2,30.06,WSW,256,3.0,11.0,71,0.00,,---,0.00,VWS V14.01,2013-08-19 21:09:00,
2013-08-19 17:15:00,75.9,65.8,30.06,WSW,244,11.0,14.0,71,0.00,,---,0.00,VWS V14.01,2013-08-19 21:15:00,
2013-08-19 17:20:00,75.8,66.1,30.06,WSW,245,4.0,14.0,72,0.00,,---,0.00,VWS V14.01,2013-08-19 21:20:00,
2013-08-19 17:24:00,76.3,66.2,30.06,SW,217,6.0,14.0,71,0.00,,---,0.00,VWS V14.01,2013-08-19 21:24:00,
2013-08-19 17:30:00,77.1,66.2,30.06,West,277,5.0,14.0,69,0.00,,---,0.00,VWS V14.01,2013-08-19 21:30:00,
2013-08-19 17:35:00,76.7,66.2,30.06,SSW,195,5.0,13.0,70,0.00,,---,0.00,VWS V14.01,2013-08-19 21:35:00,
2013-08-19 17:40:00,76.8,65.9,30.06,SW,226,5.0,13.0,69,0.00,,---,0.00,VWS V14.01,2013-08-19 21:40:00,
2013-08-19 17:45:00,77.1,66.6,30.06,SW,231,13.0,14.0,70,0.00,,---,0.00,VWS V14.01,2013-08-19 21:45:00,
2013-08-19 17:50:00,76.8,65.9,30.06,SW,215,7.0,14.0,69,0.00,,---,0.00,VWS V14.01,2013-08-19 21:50:00,
2013-08-19 17:55:00,77.0,66.1,30.06,West,260,8.0,14.0,69,0.00,,---,0.00,VWS V14.01,2013-08-19 21:55:00,
2013-08-19 18:00:00,76.4,65.9,30.06,WSW,242,6.0,15.0,70,0.00,,---,0.00,VWS V14.01,2013-08-19 22:00:00,
2013-08-19 18:05:00,76.0,65.9,30.05,WSW,250,9.0,11.0,71,0.00,,---,0.00,VWS V14.01,2013-08-19 22:05:00,
2013-08-19 18:10:00,76.0,65.9,30.06,WSW,246,11.0,13.0,71,0.00,,---,0.00,VWS V14.01,2013-08-19 22:10:00,
2013-08-19 18:15:00,75.5,65.8,30.06,WSW,250,6.0,13.0,72,0.00,,---,0.00,VWS V14.01,2013-08-19 22:15:00,
2013-08-19 18:20:00,75.5,66.2,30.06,West,273,4.0,13.0,73,0.00,,---,0.00,VWS V14.01,2013-08-19 22:20:00,
2013-08-19 18:25:00,75.4,66.2,30.06,SSW,205,3.0,13.0,73,0.00,,---,0.00,VWS V14.01,2013-08-19 22:25:00,
2013-08-19 18:30:00,75.3,66.1,30.06,SW,229,3.0,13.0,73,0.00,,---,0.00,VWS V14.01,2013-08-19 22:30:00,
2013-08-19 18:35:00,75.1,66.2,30.06,WSW,257,7.0,10.0,74,0.00,,---,0.00,VWS V14.01,2013-08-19 22:35:00,
2013-08-19 18:40:00,75.2,66.3,30.06,SW,214,3.0,10.0,74,0.00,,---,0.00,VWS V14.01,2013-08-19 22:40:00,
2013-08-19 18:45:00,75.0,66.6,30.06,SW,229,8.0,11.0,75,0.00,,---,0.00,VWS V14.01,2013-08-19 22:45:00,
2013-08-19 18:50:00,74.9,66.8,30.07,West,279,3.0,11.0,76,0.00,,---,0.00,VWS V14.01,2013-08-19 22:50:00,
2013-08-19 18:55:00,75.0,66.6,30.07,SE,126,5.0,11.0,75,0.00,,---,0.00,VWS V14.01,2013-08-19 22:55:00,
2013-08-19 19:00:00,75.0,67.3,30.07,SSW,200,4.0,11.0,77,0.00,,---,0.00,VWS V14.01,2013-08-19 23:00:00,
2013-08-19 19:05:00,74.5,67.6,30.07,SE,134,7.0,9.0,79,0.00,,---,0.00,VWS V14.01,2013-08-19 23:05:00,
2013-08-19 19:10:00,74.0,68.2,30.06,South,186,5.0,9.0,82,0.00,,---,0.00,VWS V14.01,2013-08-19 23:10:00,
2013-08-19 19:15:00,73.6,67.4,30.06,WSW,238,5.0,9.0,81,0.00,,---,0.00,VWS V14.01,2013-08-19 23:15:00,
2013-08-19 19:20:00,73.2,68.1,30.06,WSW,255,3.0,10.0,84,0.00,,---,0.00,VWS V14.01,2013-08-19 23:20:00,
2013-08-19 19:25:00,72.6,68.2,30.06,NW,309,3.0,10.0,86,0.00,,---,0.00,VWS V14.01,2013-08-19 23:25:00,
2013-08-19 19:30:00,72.4,68.3,30.06,WNW,300,3.0,10.0,87,0.00,,---,0.00,VWS V14.01,2013-08-19 23:30:00,
2013-08-19 19:35:00,72.1,68.3,30.06,SE,146,8.0,9.0,88,0.00,,---,0.00,VWS V14.01,2013-08-19 23:35:00,
2013-08-19 19:40:00,71.8,68.1,30.06,South,186,4.0,9.0,88,0.00,,---,0.00,VWS V14.01,2013-08-19 23:40:00,
2013-08-19 19:45:00,71.7,68.3,30.06,SSW,212,6.0,10.0,89,0.00,,---,0.00,VWS V14.01,2013-08-19 23:45:00,
2013-08-19 19:50:00,71.5,68.1,30.06,ESE,117,4.0,10.0,89,0.00,,---,0.00,VWS V14.01,2013-08-19 23:50:00,
2013-08-19 19:55:00,71.4,68.0,30.06,SSW,195,3.0,10.0,89,0.00,,---,0.00,VWS V14.01,2013-08-19 23:55:00,
2013-08-19 20:00:00,71.3,67.9,30.06,WNW,302,5.0,10.0,89,0.00,,---,0.00,VWS V14.01,2013-08-20 00:00:00,
2013-08-19 20:05:00,71.2,67.8,30.06,SSW,198,8.0,10.0,89,0.00,,---,0.00,VWS V14.01,2013-08-20 00:05:00,
2013-08-19 20:10:00,71.1,68.0,30.06,SW,219,6.0,11.0,90,0.00,,---,0.00,VWS V14.01,2013-08-20 00:10:00,
2013-08-19 20:15:00,71.1,68.0,30.06,South,182,6.0,12.0,90,0.00,,---,0.00,VWS V14.01,2013-08-20 00:15:00,
2013-08-19 20:20:00,71.1,68.0,30.06,WNW,295,2.0,12.0,90,0.00,,---,0.00,VWS V14.01,2013-08-20 00:20:00,
2013-08-19 20:25:00,71.0,67.9,30.06,SW,222,4.0,12.0,90,0.00,,---,0.00,VWS V14.01,2013-08-20 00:25:00,
2013-08-19 20:30:00,71.0,67.9,30.06,SW,214,5.0,12.0,90,0.00,,---,0.00,VWS V14.01,2013-08-20 00:30:00,
2013-08-19 20:35:00,70.9,67.8,30.06,East,79,1.0,8.0,90,0.00,,---,0.00,VWS V14.01,2013-08-20 00:35:00,
2013-08-19 20:40:00,70.9,67.8,30.06,West,280,1.0,8.0,90,0.00,,---,0.00,VWS V14.01,2013-08-20 00:40:00,
2013-08-19 20:45:00,70.9,67.8,30.06,SW,228,4.0,8.0,90,0.00,,---,0.00,VWS V14.01,2013-08-20 00:45:00,
2013-08-19 20:50:00,70.9,67.8,30.06,North,4,5.0,8.0,90,0.00,,---,0.00,VWS V14.01,2013-08-20 00:50:00,
2013-08-19 20:55:00,70.9,67.8,30.06,WSW,238,4.0,8.0,90,0.00,,---,0.00,VWS V14.01,2013-08-20 00:55:00,
2013-08-19 21:00:00,70.9,67.8,30.06,SW,224,3.0,8.0,90,0.00,,---,0.00,VWS V14.01,2013-08-20 01:00:00,
2013-08-19 21:05:00,70.9,67.8,30.06,SSW,212,2.0,8.0,90,0.00,,---,0.00,VWS V14.01,2013-08-20 01:05:00,
2013-08-19 21:10:00,70.9,67.8,30.06,SW,220,1.0,9.0,90,0.00,,---,0.00,VWS V14.01,2013-08-20 01:10:00,
2013-08-19 21:15:00,70.9,67.8,30.06,SSW,194,4.0,9.0,90,0.00,,---,0.00,VWS V14.01,2013-08-20 01:15:00,
2013-08-19 21:20:00,70.9,67.8,30.06,SW,221,3.0,9.0,90,0.00,,---,0.00,VWS V14.01,2013-08-20 01:20:00,
2013-08-19 21:25:00,70.9,67.8,30.07,SW,217,0.0,9.0,90,0.00,,---,0.00,VWS V14.01,2013-08-20 01:25:00,
2013-08-19 21:30:00,70.8,67.7,30.07,South,182,3.0,9.0,90,0.00,,---,0.00,VWS V14.01,2013-08-20 01:30:00,
2013-08-19 21:35:00,70.8,67.7,30.07,West,264,1.0,6.0,90,0.00,,---,0.00,VWS V14.01,2013-08-20 01:35:00,
2013-08-19 21:40:00,70.8,67.7,30.07,SSW,203,6.0,6.0,90,0.00,,---,0.00,VWS V14.01,2013-08-20 01:40:00,
2013-08-19 21:45:00,70.9,67.8,30.07,SSE,162,1.0,6.0,90,0.00,,---,0.00,VWS V14.01,2013-08-20 01:45:00,
2013-08-19 21:50:00,70.9,67.8,30.07,SW,224,1.0,7.0,90,0.00,,---,0.00,VWS V14.01,2013-08-20 01:50:00,
2013-08-19 21:55:00,71.0,67.9,30.07,SW,225,3.0,8.0,90,0.00,,---,0.00,VWS V14.01,2013-08-20 01:55:00,
2013-08-19 22:00:00,71.0,67.9,30.07,SW,214,3.0,8.0,90,0.00,,---,0.00,VWS V14.01,2013-08-20 02:00:00,
2013-08-19 22:05:00,71.0,67.9,30.07,SW,218,3.0,6.0,90,0.00,,---,0.00,VWS V14.01,2013-08-20 02:05:00,
2013-08-19 22:10:00,70.9,67.8,30.07,SSW,198,4.0,6.0,90,0.00,,---,0.00,VWS V14.01,2013-08-20 02:10:00,
2013-08-19 22:15:00,70.9,67.8,30.07,South,181,3.0,6.0,90,0.00,,---,0.00,VWS V14.01,2013-08-20 02:15:00,
2013-08-19 22:20:00,70.9,68.2,30.07,SSE,157,1.0,6.0,91,0.00,,---,0.00,VWS V14.01,2013-08-20 02:20:00,
2013-08-19 22:25:00,70.9,68.2,30.07,WSW,248,3.0,6.0,91,0.00,,---,0.00,VWS V14.01,2013-08-20 02:25:00,
2013-08-19 22:30:00,70.9,68.2,30.07,SSW,210,3.0,6.0,91,0.00,,---,0.00,VWS V14.01,2013-08-20 02:30:00,
2013-08-19 22:35:00,70.9,68.2,30.07,SW,224,5.0,5.0,91,0.00,,---,0.00,VWS V14.01,2013-08-20 02:35:00,
2013-08-19 22:40:00,70.9,68.2,30.07,South,182,1.0,7.0,91,0.00,,---,0.00,VWS V14.01,2013-08-20 02:40:00,
2013-08-19 22:45:00,70.9,68.2,30.07,South,172,2.0,7.0,91,0.00,,---,0.00,VWS V14.01,2013-08-20 02:45:00,
2013-08-19 22:50:00,70.9,68.2,30.07,SSW,197,2.0,7.0,91,0.00,,---,0.00,VWS V14.01,2013-08-20 02:50:00,
2013-08-19 22:55:00,70.9,68.5,30.07,SE,140,6.0,7.0,92,0.00,,---,0.00,VWS V14.01,2013-08-20 02:55:00,
2013-08-19 23:00:00,70.9,68.5,30.07,SSW,195,1.0,7.0,92,0.00,,---,0.00,VWS V14.01,2013-08-20 03:00:00,
2013-08-19 23:05:00,70.9,68.2,30.07,SW,222,4.0,7.0,91,0.00,,---,0.00,VWS V14.01,2013-08-20 03:05:00,
2013-08-19 23:10:00,70.9,68.2,30.07,SSW,212,2.0,8.0,91,0.00,,---,0.00,VWS V14.01,2013-08-20 03:10:00,
2013-08-19 23:15:00,70.9,68.2,30.07,SSW,210,2.0,8.0,91,0.00,,---,0.00,VWS V14.01,2013-08-20 03:15:00,
2013-08-19 23:20:00,70.9,68.2,30.07,SW,219,3.0,8.0,91,0.00,,---,0.00,VWS V14.01,2013-08-20 03:20:00,
2013-08-19 23:25:00,70.9,68.2,30.07,South,186,7.0,8.0,91,0.00,,---,0.00,VWS V14.01,2013-08-20 03:25:00,
2013-08-19 23:30:00,70.9,68.2,30.07,SSW,203,2.0,8.0,91,0.00,,---,0.00,VWS V14.01,2013-08-20 03:30:00,
2013-08-19 23:35:00,70.9,68.2,30.07,SE,139,3.0,7.0,91,0.00,,---,0.00,VWS V14.01,2013-08-20 03:35:00,
2013-08-19 23:40:00,70.8,67.7,30.07,South,174,4.0,7.0,90,0.00,,---,0.00,VWS V14.01,2013-08-20 03:40:00,
2013-08-19 23:45:00,70.7,67.6,30.08,SW,227,5.0,7.0,90,0.00,,---,0.00,VWS V14.01,2013-08-20 03:45:00,
2013-08-19 23:50:00,70.8,67.7,30.07,South,174,5.0,9.0,90,0.00,,---,0.00,VWS V14.01,2013-08-20 03:50:00,
2013-08-19 23:55:00,70.8,67.7,30.08,South,187,5.0,9.0,90,0.00,,---,0.00,VWS V14.01,2013-08-20 03:55:00,